Weather History for KCZZ - June, 2013

Change the Weather History Date:

Sunday, June 16, 2013

  Actual Average Record
Temperature  
Mean Temperature 61 °F 66 °F  
Max Temperature 86 °F 87 °F 103 °F (1961)
Min Temperature 36 °F 45 °F 34 °F (1973)
Degree Days  
Heating Degree Days 4 2  
Month to date heating degree days 20 41  
Since 1 June heating degree days 20 41  
Since 1 July heating degree days 2997 2968  
Cooling Degree Days 0 3  
Month to date cooling degree days 30 34  
Year to date cooling degree days 57 64  
Since 1 June cooling degree days 30 34  
Growing Degree Days 10 (Base 50)    
Moisture  
Dew Point 33 °F    
Average Humidity 42    
Maximum Humidity 76    
Minimum Humidity 7    
Precipitation  
Precipitation 0.00 in 0.00 in 0.38 in (1995)
Month to date precipitation 0.00 0.06  
Year to date precipitation 4.78 10.10  
Since 1 July precipitation 9.25  
Snow  
Snow 0.00 in - - ()
Month to date snowfall 0.0  
Year to date snowfall 0.0  
Since 1 June snowfall  
Since 1 July snowfall 0.0  
Snow Depth 0.00 in    
Sea Level Pressure  
Sea Level Pressure 29.91 in    
Wind  
Wind Speed 9 mph (SSE)    
Max Wind Speed 21 mph    
Max Gust Speed 25 mph    
T = Trace of Precipitation, MM = Missing Value Source: NWS Daily Summary

Daily Weather History Graph

Daily Weather History Graph

Search for Another Location

Airport or City:

Trip Planner

Search our weather history database for the weather conditions in past years. The results will help you decide how hot, cold, wet, or windy it might be!

Date:

Astronomy

Jun. 16, 2013 Rise Set
Actual Time 5:37 AM PDT 7:55 PM PDT
Civil Twilight 5:09 AM PDT 8:24 PM PDT
Nautical Twilight 4:34 AM PDT 8:59 PM PDT
Astronomical Twilight 3:56 AM PDT 9:37 PM PDT
Moon 12:55 PM PDT (6/16) 12:24 AM PDT (6/16)
Length of Visible Light 15h 14m
Length of Day
14h 17m
Waxing Crescent, 51% of the Moon is Illuminated
Jun 16
Waxing Crescent
Jun 23
Full
Jun 29
Last Quarter
Jul 8
New
Jul 15
First Quarter

Hourly Weather History & Observations

Time (PDT) Temp. Windchill Dew Point Humidity Pressure Visibility Wind Dir Wind Speed Gust Speed Precip Events Conditions
12:52 AM 46.0 °F 43.1 °F 37.9 °F 73% 29.89 in - NE 5.8 mph - N/A   Unknown
1:52 AM 45.0 °F 41.8 °F 35.1 °F 68% 29.89 in - NE 5.8 mph - N/A   Unknown
2:52 AM 37.9 °F 33.5 °F 30.9 °F 76% 29.90 in - NE 5.8 mph - N/A   Unknown
3:52 AM 41.0 °F 37.1 °F 27.0 °F 57% 29.90 in - ENE 5.8 mph - N/A   Unknown
4:52 AM 39.9 °F 36.7 °F 21.9 °F 49% 29.91 in - NE 4.6 mph - N/A   Unknown
5:52 AM 39.9 °F 35.8 °F 21.0 °F 47% 29.93 in - NE 5.8 mph - N/A   Unknown
6:52 AM 46.9 °F - 19.9 °F 34% 29.94 in - NE 5.8 mph - N/A   Unknown
7:52 AM 61.0 °F - 23.0 °F 23% 29.93 in - Calm Calm - N/A   Unknown
8:52 AM 73.0 °F - 9.0 °F 8% 29.92 in - Calm Calm - N/A   Unknown
9:52 AM 79.0 °F - 8.1 °F 7% 29.91 in - SSW 4.6 mph - N/A   Unknown
10:52 AM 80.1 °F - 24.1 °F 13% 29.92 in - SSW 16.1 mph - N/A   Unknown
11:52 AM 81.0 °F - 26.1 °F 13% 29.92 in - SSW 15.0 mph - N/A   Unknown
12:52 PM 82.0 °F - 32.0 °F 16% 29.91 in - SSW 17.3 mph - N/A   Unknown
1:52 PM 84.9 °F - 36.0 °F 17% 29.89 in - SSW 19.6 mph - N/A   Unknown
2:52 PM 84.9 °F - 37.0 °F 18% 29.89 in - SW 17.3 mph 21.9 mph N/A   Unknown
3:52 PM 84.0 °F - 42.1 °F 23% 29.88 in - SW 16.1 mph - N/A   Unknown
4:52 PM 84.0 °F - 45.0 °F 25% 29.89 in - WSW 12.7 mph - N/A   Unknown
5:52 PM 81.0 °F - 46.9 °F 30% 29.89 in - WSW 10.4 mph - N/A   Unknown
6:52 PM 73.9 °F - 48.0 °F 40% 29.90 in - SSW 10.4 mph - N/A   Unknown
7:52 PM 66.9 °F - 48.0 °F 51% 29.90 in - SSW 9.2 mph - N/A   Unknown
8:52 PM 64.9 °F - 48.0 °F 54% 29.90 in - South 4.6 mph - N/A   Unknown
9:52 PM 54.0 °F - 43.0 °F 66% 29.91 in - NNE 4.6 mph - N/A   Unknown
10:52 PM 55.0 °F - 44.1 °F 67% 29.92 in - NE 5.8 mph - N/A   Unknown
11:52 PM 50.0 °F - 42.1 °F 74% 29.92 in - NE 3.5 mph - N/A   Unknown